Regional Weather Roundup
Issued by NWS

Home | Current Version | Previous Version | Graphics & Text | Print | Product List | Glossary On
Versions: 1 2 3 4 5 6 7 8 9 10 11 12 13 14 15 16 17 18 19 20 21 22 23 24 25 26 27 28 29 30 31 32 33 34 35 36 37 38 39 40 41 42 43 44 45 46 47 48 49 50
149
ASUS44 KJAN 061610
RWRMS

MISSISSIPPI HOURLY WEATHER ROUNDUP
NATIONAL WEATHER SERVICE JACKSON MS
1000 AM CST FRI MAR 06 2015

NOTE: "FAIR: INDICATES FEW OR NO CLOUDS BELOW 12,000 FEET WITH NO
SIGNIFICANT WEATHER AND/OR OBSTRUCTIONS TO VISIBILITY.

MSZ001>002-007>008-010>013-018>021-025>028-034>036-061700-
NORTHWEST MISSISSIPPI

CITY           SKY/WX    TMP DP  RH WIND       PRES   REMARKS
CLARKSDALE     FAIR      27  14  59 MISG      30.66R
CLEVELAND      FAIR      30  18  59 NE7       30.64S WCI  23
GREENWOOD      SUNNY     33  14  45 N8        30.62S WCI  26
GREENVILLE     SUNNY     31  17  56 MISG      30.63F
OLIVE BRANCH   SUNNY     25  12  58 CALM      30.63S
OXFORD         FAIR      27   9  46 NE8       30.62S WCI  18
TUNICA         SUNNY     27  14  59 CALM      30.66S
$$

MSZ003>006-009-014>017-022>024-029>033-037>039-061700-
NORTHEAST MISSISSIPPI

CITY           SKY/WX    TMP DP  RH WIND       PRES   REMARKS
COLUMBUS AFB   SUNNY     30  16  56 N6        30.58S WCI  24
CORINTH        FAIR      28  14  54 NE6       30.60S WCI  22
GOLDN TRIANGLE SUNNY     30  19  64 N7        30.57S WCI  23
STARKVILLE     FAIR      30  18  59 N7        30.59S WCI  23
TUPELO         SUNNY     28  13  53 NE6       30.60S WCI  22
$$

MSZ040-058-061700-
CENTRAL MISSISSIPPI

CITY           SKY/WX    TMP DP  RH WIND       PRES   REMARKS
JACKSON INTL   SUNNY     33  16  49 N13       30.59R WCI  24
JACKSON HAWKNS SUNNY     33  13  43 NE9G17    30.59S WCI  25
MERIDIAN KEY   SUNNY     35  17  47 N12       30.55S WCI  27
MERIDIAN NAS   MOSUNNY   33  16  49 NW9       30.56  WCI  25
VICKSBURG      SUNNY     35  17  47 NE9       30.63S WCI  28
$$

MSZ059>079-061700-
SOUTH MISSISSIPPI

CITY           SKY/WX    TMP DP  RH WIND       PRES   REMARKS
BROOKHAVEN     FAIR      34  21  60 N9G16     30.57S WCI  26
HATTIESBURG    MOSUNNY   37  15  40 N10       30.54S WCI  30
MCCOMB         SUNNY     35  12  38 N14       30.54F WCI  26
NATCHEZ        SUNNY     34  12  40 NE9       30.60R WCI  26
PINE BELT      MOSUNNY   37  16  41 N13       30.54S WCI  29
$$

MSZ080>082-061700-
COASTAL MISSISSIPPI

CITY           SKY/WX    TMP DP  RH WIND       PRES   REMARKS
BAY ST LOUIS   SUNNY     39  12  33 N14G23    30.50S WCI  31
BILOXI         SUNNY     40  19  41 N15       30.47R WCI  32
PASCAGOULA     SUNNY     41  20  43 N17G24    30.46S
GULFPORT       SUNNY     40  17  39 N17       30.48R WCI  31
$$



USA.gov is the U.S. government's official web portal to all federal, state and local government web resources and services.